This demonstration page uses our WeatherBlox Daily Observations layout. Learn more.

Left ArrowRight Arrow

Hourly Observations for June 26, 2019

Temp ( °F °C ) Dew Point ( °F °C ) Humidity (%) Winds ( mph kmh ) Pressure ( in mb ) Visibility ( mi km ) Precip ( " mm )
12:53 am 00:53 Clear 53 11.7 46 7.8 77 77 SSE 5 7 29.85 1011 10 16 0.00 0.00
1:53 am 01:53 Clear 49 9.4 45 7.2 86 86 Calm 29.87 1011 10 16 0.00 0.00
2:53 am 02:53 Clear 52 11.1 45 7.2 77 77 Calm 29.86 1011 10 16 0.00 0.00
3:53 am 03:53 Clear 48 8.9 45 7.2 89 89 Calm 29.88 1012 10 16 0.00 0.00
4:53 am 04:53 Clear 46 7.8 44 6.7 93 93 Calm 29.89 1012 10 16 0.00 0.00
5:53 am 05:53 Sunny 45 7.2 43 6.1 93 93 Calm 29.91 1013 10 16 0.00 0.00
6:53 am 06:53 Sunny 50 10 47 8.3 89 89 W 5 7 29.92 1013 10 16 0.00 0.00
7:53 am 07:53 Mostly Sunny 55 12.8 49 9.4 80 80 Calm 29.93 1013 10 16 0.00 0.00
8:53 am 08:53 Mostly Sunny 58 14.4 49 9.4 72 72 Calm 29.93 1014 10 16 0.00 0.00
9:53 am 09:53 Sunny 65 18.3 48 8.9 54 54 Calm 29.93 1013 10 16 0.00 0.00
10:53 am 10:53 Sunny 70 21.1 47 8.3 44 44 Calm 29.92 1013 10 16 0.00 0.00
11:53 am 11:53 Sunny 74 23.3 45 7.2 36 36 VRB 5 7 29.91 1013 10 16 0.00 0.00
12:53 pm 12:53 Sunny 76 24.4 47 8.3 36 36 ESE 8 13 29.91 1013 10 16 0.00 0.00
1:53 pm 13:53 Sunny 77 25 47 8.3 35 35 VRB 3 6 29.90 1013 10 16 0.00 0.00
2:53 pm 14:53 Sunny 80 26.7 47 8.3 31 31 undefined N/A 29.88 1012 10 16 0.00 0.00
3:53 pm 15:53 Partly Cloudy 78 25.6 48 8.9 35 35 E 13 20 29.88 1012 10 16 0.00 0.00
4:53 pm 16:53 Sunny 77 25 48 8.9 36 36 E 14 22 29.87 1012 10 16 0.00 0.00
5:53 pm 17:53 Mostly Sunny 77 25 49 9.4 37 37 E 9 15 29.87 1012 10 16 0.00 0.00
6:53 pm 18:53 Partly Cloudy 76 24.4 50 10 40 40 E 12 19 29.85 1011 10 16 0.00 0.00
7:53 pm 19:53 Sunny 73 22.8 51 10.6 46 46 E 10 17 29.87 1011 10 16 0.00 0.00
8:53 pm 20:53 Cloudy with Nearby Thunderstorms 69 20.6 52 11.1 55 55 ESE 7 11 29.87 1012 10 16 0.00 0.00
9:34 pm 21:34 Cloudy with Thunderstorms 65 18.3 54 12.2 68 68 SSW 8 13 29.86 1011 10 16 0.01 0.25
9:53 pm 21:53 Windy with Storms Likely 61 16.1 53 11.7 75 75 SSE 21 33 29.94 1014 10 16 0.01 0.25
10:30 pm 22:30 Cloudy with Nearby Thunderstorms 57 14 55 13 94 94 S 21 33 29.97 1015 3 5 0.00 0.00
10:45 pm 22:45 Cloudy with Rain 57 13.9 55 12.8 93 93 S 14 22 29.96 1015 6 10 0.14 3.56
10:53 pm 22:53 Cloudy with Light Rain 57 13.9 55 12.8 93 93 SSE 13 20 29.97 1015 8 13 0.16 4.06
11:53 pm 23:53 Mostly Clear 58 14.4 54 12.2 87 87 ESE 14 22 29.90 1013 10 16 0.05 1.27

Powered by AerisWeather